Regional Weather Roundup
Issued by NWS

Home | Current Version | Previous Version | Graphics & Text | Print | Product List | Glossary On
Versions: 1 2 3 4 5 6 7 8 9 10 11 12 13 14 15 16 17 18 19 20 21 22 23 24 25 26 27 28 29 30 31 32 33 34 35 36 37 38 39 40 41 42 43 44 45 46 47 48 49 50
000
ASUS45 KABQ 250701
RWRNM
WEATHER ROUNDUP FOR NEW MEXICO
NATIONAL WEATHER SERVICE ALBUQUERQUE NM
100 AM MDT SAT OCT 25 2014

NOTE: "FAIR" MEANS FEW OR NO CLOUDS BELOW 12,000 FEET AGL WITH NO
       SIGNIFICANT WEATHER OR OBSTRUCTIONS TO VISION.

      THIS PRODUCT IS RELEASED AS TWO VERSIONS.  ONE VERSION NEAR
      THE TOP OF THE HOUR CONTAINING PRELIMINARY DATA FROM ALBUQUERQUE
      AND OTHER STATIONS.  A FINAL VERSION WITH ADDITIONAL DATA IS
      ISSUED ABOUT 10 MINUTES AFTER THE HOUR.

NMZ501-503-504-510>518-250800-
NORTHWEST PLATEAU/NORTHCENTRAL MOUNTAINS

CITY           SKY/WX    TMP DP  RH WIND       PRES   REMARKS
FARMINGTON     CLEAR     47  31  53 E8        30.30S
LOS ALAMOS     CLEAR     58  19  21 CALM      30.39S
SANTA FE       CLEAR     48  23  37 N6        30.33S
TAOS           PTCLDY    37  21  52 N7        30.39S WCI  32
ANGEL FIRE     FAIR      28  23  80 SE3       30.48R

$$
NMZ402-403-502-505>509-250800-
WESTCENTRAL MOUNTAINS/SOUTHWEST MOUNTAINS

CITY           SKY/WX    TMP DP  RH WIND       PRES   REMARKS
GALLUP         CLEAR     42  33  70 CALM      30.36S
SILVER CITY    CLEAR     54  41  62 N10       30.32S

$$
NMZ407-409-411-412-250800-
SOUTHERN DESERTS

CITY           SKY/WX    TMP DP  RH WIND       PRES   REMARKS
LORDSBURG      FAIR      57  43  58 S6        30.23S
DEMING         CLEAR     52  44  74 CALM      30.24S
HOLLOMAN AFB   PTCLDY    57  46  66 CALM      30.21S
T OR C         CLEAR     59  47  64 W8        30.25S

$$
NMZ519>523-250800-
CENTRAL VALLEYS/CENTRAL HIGHLANDS

CITY           SKY/WX    TMP DP  RH WIND       PRES   REMARKS
ALBUQUERQUE    CLEAR     59  37  44 E3        30.29S
DOUBLE EAGLE   CLEAR     55  30  38 CALM      30.31S
MORIARTY ARPT  FAIR      38  31  74 NE5       30.33F WCI  35
CLINES CORNERS PTCLDY    50  29  44 NW14      30.34F
BELEN          NOT AVBL
SOCORRO        FAIR      56  42  59 S5        30.26R

$$
NMZ524>526-539-540-250800-
SOUTHCENTRAL MOUNTAINS

CITY           SKY/WX    TMP DP  RH WIND       PRES   REMARKS
RUIDOSO        CLEAR     50  39  66 SW10      30.38F

$$
NMZ527>531-250800-
NORTHEAST HIGHLANDS/NORTHEAST PLAINS

CITY           SKY/WX    TMP DP  RH WIND       PRES   REMARKS
LAS VEGAS      CLEAR     44  23  43 CALM      30.32F
RATON          PTCLDY    43  31  62 NE6       30.29F
CLAYTON        CLEAR     58  33  39 W7        30.19F

$$
NMZ532>537-250800-
EASTCENTRAL PLAINS

CITY           SKY/WX    TMP DP  RH WIND       PRES   REMARKS
TUCUMCARI      CLEAR     63  48  58 SW9       30.15F
CANNON AFB     CLEAR     58  47  66 W6        30.20S
CLOVIS AIRPORT CLEAR     59  45  58 W10       30.23S

$$
NMZ028-029-538-250800-
SOUTHEAST PLAINS

CITY           SKY/WX    TMP DP  RH WIND       PRES   REMARKS
ROSWELL        CLEAR     55  52  89 CALM      30.17S
CARLSBAD       CLEAR     60  53  77 SW8       30.15S
HOBBS          CLEAR     57  48  72 S7        30.20S


$$



USA.gov is the U.S. government's official web portal to all federal, state and local government web resources and services.